Location: Unspecified
(41.5516°N, 88.1098°W)
Time: 06:03:31
(UTC-05:00)

Resurs 1-4 Rocket - Visible Passes

Search period start: 30 May 2017 00:00
Search period end: 09 June 2017 00:00
Orbit: 800 x 814 km, 98.5° (Epoch: 29 May)

Date Brightness Start Highest point End Pass type
(mag) Time Alt. Az. Time Alt. Az. Time Alt. Az.
30 May 2.3 03:06:38 10° NNE 03:11:56 67° ESE 03:15:04 25° S visible
30 May 3.9 04:47:51 10° NNW 04:51:12 17° WNW 04:54:34 10° W visible
31 May 3.1 02:42:18 10° NNE 02:47:18 39° E 02:50:13 22° SSE visible
31 May 3.3 04:22:31 10° N 04:26:56 27° WNW 04:31:19 10° WSW visible
01 Jun 3.9 02:18:18 10° NE 02:22:33 24° E 02:25:23 16° SE visible
01 Jun 2.7 03:57:32 10° N 04:02:33 44° WNW 04:06:28 16° SW visible
02 Jun 4.4 01:54:58 10° ENE 01:57:45 14° E 02:00:29 10° ESE visible
02 Jun 2.1 03:32:47 10° N 03:38:06 72° WNW 03:41:38 22° SSW visible
03 Jun 2.3 03:08:13 10° NNE 03:13:33 69° ESE 03:16:47 24° S visible
04 Jun 3.0 02:43:53 10° NNE 02:48:54 41° E 02:51:57 22° SSE visible
04 Jun 3.4 04:24:09 10° N 04:28:31 26° WNW 04:32:52 10° WSW visible
05 Jun 3.8 02:19:51 10° NE 02:24:11 25° E 02:27:06 16° SE visible
05 Jun 2.7 03:59:10 10° N 04:04:09 42° WNW 04:08:11 15° SW visible
06 Jun 4.4 01:56:26 10° ENE 01:59:22 15° E 02:02:15 10° ESE visible
06 Jun 2.2 03:34:23 10° N 03:39:42 70° WNW 03:43:21 20° SSW visible
07 Jun 2.2 03:09:49 10° NNE 03:15:09 72° ESE 03:18:29 23° S visible
08 Jun 3.0 02:45:27 10° NNE 02:50:31 43° E 02:53:38 21° SSE visible
08 Jun 3.4 04:25:48 10° N 04:30:06 25° WNW 04:34:23 10° WSW visible
